User: anonymous   Login
Location: Les Coudrans
(46.1056°N, 1.1158°W)
Time: 14:23:32
(UTC+00:00)
Language:

SL-08 RB Rocket - Orbit

View from above orbital plane
View from above orbital plane
View from above satellite
View from above satellite

Ground track
Ground track

The orbit data is extracted from the following two-line orbital elements,

1 26387U 00033D   21127.17107059  .00000057  00000-0  17730-4 0  9999
2 26387  97.7775 159.7497 0027615 127.9553 276.4107 14.68698536116275
Epoch (UTC): 07 May 2021 04:06:20
Eccentricity: 0.0027615
inclination: 97.7775°
perigee height: 646 km
apogee height: 684 km
right ascension of ascending node: 159.7497°
argument of perigee: 127.9553°
revolutions per day: 14.68698536
mean anomaly at epoch: 276.4107°
orbit number at epoch: 11627

The dashed part of the orbit path shows where the satellite is in the earth's shadow,  

DLR